Regional Weather Roundup
Issued by NWS

Home | Current Version | Previous Version | Graphics & Text | Print | Product List | Glossary On
Versions: 1 2 3 4 5 6 7 8 9 10 11 12 13 14 15 16 17 18 19 20 21 22 23 24 25 26 27 28 29 30 31 32 33 34 35 36 37 38 39 40 41 42 43 44 45 46 47 48 49 50
470
ASUS43 KFSD 240310
RWRSD

WEATHER ROUNDUP FOR SOUTH DAKOTA
NATIONAL WEATHER SERVICE SIOUX FALLS SD
1000 PM CDT SAT JUL 23 2016

NOTE: "FAIR" INDICATES FEW OR NO CLOUDS BELOW 12,000 FEET WITH NO
SIGNIFICANT WEATHER AND/OR OBSTRUCTIONS TO VISIBILITY.


SDZ001>005-009-010-012>017-240400-
NORTHWEST AND NORTH CENTRAL SOUTH DAKOTA

CITY           SKY/WX    TMP DP  RH WIND       PRES   REMARKS
BUFFALO          N/A     74  42  31 N13       29.93R
FAITH            N/A     73  36  25 NW8       29.95R
MOBRIDGE       CLEAR     68  59  73 N6        29.84R
$$

SDZ012>016-024>037-041>051-057-063-072>074-240400-
SOUTHWEST AND SOUTH CENTRAL SOUTH DAKOTA

CITY           SKY/WX    TMP DP  RH WIND       PRES   REMARKS
RAPID CTY ARPT CLEAR     70  43  37 N8        29.99R
PIERRE         CLEAR     74  58  57 N6        29.86R
CUSTER         CLEAR     68  39  34 E9        30.15R
ELLSWORTH AFB  CLEAR     78  40  25 N6        30.00R
PHILIP         CLEAR     75  48  38 NE7       29.91R
PINE RIDGE     PTCLDY    71  52  50 NE6       30.00R
WINNER         FAIR      78  57  48 N6        29.90R
$$

SDZ004>011-016>023-039-040-240400-
NORTHEAST SOUTH DAKOTA

CITY           SKY/WX    TMP DP  RH WIND       PRES   REMARKS
ABERDEEN       CLEAR     75  67  76 NW10      29.81R
WATERTOWN      MOCLDY    81  72  74 NW15      29.79R
BROOKINGS      CLEAR     82  77  84 SW6       29.77R
SISSETON         N/A     80  73  79 NW15G24   29.74R
$$

SDZ017-020-022-023-036>040-048>070-240400-
SOUTHEAST SOUTH DAKOTA

CITY           SKY/WX    TMP DP  RH WIND       PRES   REMARKS
SIOUX FALLS    PTCLDY    86  73  65 SW7       29.76R
HURON          CLEAR     79  68  69 NW13      29.81R
CHAMBERLAIN    CLEAR     82  62  50 N8        29.88R
MITCHELL       MOCLDY    83  72  69 N14       29.81R
YANKTON        CLEAR     84  75  74 SE6       29.74R
$$

ABBREVIATIONS USED IN REMARKS
   TC - TEMPERATURE IN CELSIUS
  WCI - WIND CHILL INDEX
   HX - HEAT INDEX
  VSB - VISIBILITY





USA.gov is the U.S. government's official web portal to all federal, state and local government web resources and services.